Regional Weather Roundup
Issued by NWS

Home | Current Version | Previous Version | Text Only | Print | Product List | Glossary On
Versions: 1 2 3 4 5 6 7 8 9 10 11 12 13 14 15 16 17 18 19 20 21 22 23 24 25 26 27 28 29 30 31 32 33 34 35 36 37 38 39 40 41 42 43 44 45 46 47 48 49 50
000
ASUS45 KBOI 290610
RWRID

IDAHO REGIONAL WEATHER ROUNDUP
NATIONAL WEATHER SERVICE BOISE ID
1200 AM MDT WED MAR 29 2017

NOTE: "FAIR" INDICATES FEW OR NO CLOUDS BELOW 12000 FEET
WITH NO SIGNIFICANT WEATHER AND/OR OBSTRUCTIONS TO VISIBILITY

IDZ012-014-290700-
SOUTHWEST IDAHO


CITY           SKY/WX    TMP DP  RH WIND       PRES   REMARKS
BOISE          PTCLDY    42  31  64 SE5       30.26S
CALDWELL       PTCLDY    44  33  65 E3        30.26F
MOUNTAIN HOME  PTCLDY    40  33  78 W3        30.26S
$$

IDZ016-017-290700-
SOUTHCENTRAL IDAHO


CITY           SKY/WX    TMP DP  RH WIND       PRES   REMARKS
BURLEY         CLEAR     39  28  64 SW12      30.25R WCI  32
JEROME         PTCLDY    39  30  70 S8        30.25S WCI  33
TWIN FALLS     PTCLDY    36  29  75 S13       30.26R WCI  27
$$

IDZ019>023-290700-
SOUTHEAST IDAHO


CITY           SKY/WX    TMP DP  RH WIND       PRES   REMARKS
IDAHO FALLS    CLOUDY    39  29  67 S15       30.23R WCI  31
POCATELLO      CLOUDY    39  28  64 S12       30.25R WCI  32
REXBURG        CLOUDY    38  28  67 S8        30.21R WCI  32
$$

IDZ006-010-011-018-031-032-290700-
CENTRAL IDAHO MOUNTAINS


CITY           SKY/WX    TMP DP  RH WIND       PRES   REMARKS
MCCALL         CLOUDY    35  27  72 CALM      30.24S
HAILEY         CLEAR     34  28  80 NW7       30.24S WCI  28
STANLEY          N/A     25  21  85 SE3       30.24S
SALMON         CLEAR    N/A N/A N/A MISG        N/A
CHALLIS        CLEAR     39  22  50 S7        30.18F WCI  34
$$

IDZ002-004-006-007-026-290700-
NORTHERN IDAHO


CITY           SKY/WX    TMP DP  RH WIND       PRES   REMARKS
LEWISTON       CLOUDY    46  40  79 NE7       30.23F
LOWELL           N/A     43  40  89 N3        30.28F
COEUR D`ALENE  CLOUDY    41  39  93 SE8       30.20F
MULLAN PASS    FOG       28  28 100 W8        30.14S VSB 1/4 WCI  20
$$



USA.gov is the U.S. government's official web portal to all federal, state and local government web resources and services.